Weather History for KDYR - May, 2013

Change the Weather History Date:

Thursday, May 16, 2013

  Actual Average Record
Temperature  
Mean Temperature 72 °F -  
Max Temperature 80 °F 76 °F 89 °F (2012)
Min Temperature 64 °F 58 °F 42 °F (1997)
Cooling Degree Days 7    
Growing Degree Days 22 (Base 50)    
Moisture  
Dew Point 54 °F    
Average Humidity 56    
Maximum Humidity 68    
Minimum Humidity 44    
Precipitation  
Precipitation 0.00 in - - ()
Sea Level Pressure  
Sea Level Pressure 29.97 in    
Wind  
Wind Speed 4 mph (SSE)    
Max Wind Speed 9 mph    
Max Gust Speed -    
Visibility 10 miles    
Events      
Averages and records for this station are not official NWS values.
T = Trace of Precipitation, MM = Missing Value Source: NWS Daily Summary

Daily Weather History Graph

Daily Weather History Graph

Search for Another Location

Airport or City:

Trip Planner

Search our weather history database for the weather conditions in past years. The results will help you decide how hot, cold, wet, or windy it might be!

Date:

Astronomy

May. 16, 2013 Rise Set
Actual Time 5:50 AM CDT 7:57 PM CDT
Civil Twilight 5:22 AM CDT 8:26 PM CDT
Nautical Twilight 4:47 AM CDT 9:01 PM CDT
Astronomical Twilight 4:09 AM CDT 9:39 PM CDT
Moon 11:20 AM CDT (5/16) 12:21 AM CDT (5/16)
Length of Visible Light 15h 03m
Length of Day
14h 06m
Waxing Crescent, 36% of the Moon is Illuminated
May 16
Waxing Crescent
May 17
First Quarter
May 24
Full
May 31
Last Quarter
Jun 8
New

Hourly Weather History & Observations

Time (CDT) Temp. Heat Index Dew Point Humidity Pressure Visibility Wind Dir Wind Speed Gust Speed Precip Events Conditions
12:15 AM 71.6 °F - 51.8 °F 50% 29.99 in 10.0 mi South 3.5 mph - N/A   Scattered Clouds
12:35 AM 71.6 °F - 51.8 °F 50% 29.98 in 10.0 mi South 4.6 mph - N/A   Partly Cloudy
12:55 AM 71.6 °F - 51.8 °F 50% 29.98 in 10.0 mi South 3.5 mph - N/A   Clear
1:15 AM 71.6 °F - 51.8 °F 50% 29.97 in 10.0 mi South 4.6 mph - N/A   Clear
1:35 AM 71.6 °F - 51.8 °F 50% 29.96 in 10.0 mi South 3.5 mph - N/A   Clear
1:55 AM 69.8 °F - 51.8 °F 53% 29.96 in 10.0 mi SSW 3.5 mph - N/A   Clear
2:15 AM 69.8 °F - 51.8 °F 53% 29.96 in 10.0 mi South 4.6 mph - N/A   Clear
2:35 AM 69.8 °F - 51.8 °F 53% 29.95 in 10.0 mi Calm Calm - N/A   Clear
2:55 AM 69.8 °F - 51.8 °F 53% 29.95 in 10.0 mi South 3.5 mph - N/A   Clear
3:15 AM 68.0 °F - 51.8 °F 56% 29.94 in 10.0 mi SE 3.5 mph - N/A   Clear
3:35 AM 66.2 °F - 51.8 °F 60% 29.95 in 10.0 mi Calm Calm - N/A   Clear
3:55 AM 66.2 °F - 53.6 °F 64% 29.96 in 10.0 mi Calm Calm - N/A   Clear
4:15 AM 66.2 °F - 51.8 °F 60% 29.96 in 10.0 mi Calm Calm - N/A   Mostly Cloudy
4:35 AM 66.2 °F - 51.8 °F 60% 29.98 in 10.0 mi South 4.6 mph - N/A   Mostly Cloudy
4:55 AM 66.2 °F - 51.8 °F 60% 29.97 in 10.0 mi Calm Calm - N/A   Partly Cloudy
5:15 AM 66.2 °F - 53.6 °F 64% 29.98 in 10.0 mi Calm Calm - N/A   Clear
5:35 AM 66.2 °F - 51.8 °F 60% 30.00 in 10.0 mi Calm Calm - N/A   Clear
5:55 AM 64.4 °F - 53.6 °F 68% 30.00 in 10.0 mi Calm Calm - N/A   Partly Cloudy
6:15 AM 64.4 °F - 53.6 °F 68% 30.00 in 10.0 mi Calm Calm - N/A   Clear
6:35 AM 64.4 °F - 53.6 °F 68% 30.02 in 10.0 mi SSW 3.5 mph - N/A   Clear
6:55 AM 66.2 °F - 53.6 °F 64% 30.03 in 10.0 mi Calm Calm - N/A   Clear
7:15 AM 66.2 °F - 53.6 °F 64% 30.03 in 10.0 mi SW 4.6 mph - N/A   Mostly Cloudy
7:35 AM 66.2 °F - 53.6 °F 64% 30.02 in 10.0 mi Calm Calm - N/A   Overcast
7:55 AM 64.4 °F - 53.6 °F 68% 30.02 in 10.0 mi SSE 4.6 mph - N/A   Overcast
8:15 AM 66.2 °F - 53.6 °F 64% 30.02 in 10.0 mi SSE 5.8 mph - N/A   Overcast
8:35 AM 66.2 °F - 53.6 °F 64% 30.01 in 10.0 mi Calm Calm - N/A   Mostly Cloudy
8:55 AM 66.2 °F - 53.6 °F 64% 30.01 in 10.0 mi Calm Calm - N/A   Mostly Cloudy
9:15 AM 66.2 °F - 55.4 °F 68% 30.01 in 10.0 mi Calm Calm - N/A   Overcast
9:35 AM 69.8 °F - 55.4 °F 60% 30.01 in 10.0 mi Calm Calm - N/A   Mostly Cloudy
9:55 AM 69.8 °F - 55.4 °F 60% 30.01 in 10.0 mi SE 3.5 mph - N/A   Mostly Cloudy
10:15 AM 69.8 °F - 55.4 °F 60% 30.01 in 10.0 mi SE 4.6 mph - N/A   Overcast
10:35 AM 69.8 °F - 55.4 °F 60% 30.01 in 10.0 mi ESE 5.8 mph - N/A   Overcast
10:55 AM 71.6 °F - 55.4 °F 57% 30.01 in 10.0 mi SE 5.8 mph - N/A   Scattered Clouds
11:15 AM 71.6 °F - 55.4 °F 57% 30.01 in 10.0 mi SE 3.5 mph - N/A   Clear
11:35 AM 73.4 °F - 57.2 °F 57% 30.00 in 10.0 mi Calm Calm - N/A   Clear
11:55 AM 77.0 °F - 57.2 °F 50% 29.99 in 10.0 mi South 4.6 mph - N/A   Clear
12:15 PM 78.8 °F - 57.2 °F 47% 29.98 in 10.0 mi SSE 5.8 mph - N/A   Clear
12:35 PM 78.8 °F - 57.2 °F 47% 29.97 in 10.0 mi SE 6.9 mph - N/A   Clear
12:55 PM 78.8 °F - 57.2 °F 47% 29.96 in 10.0 mi SE 5.8 mph - N/A   Partly Cloudy
1:15 PM 80.6 °F 80.8 °F 57.2 °F 45% 29.96 in 10.0 mi SE 9.2 mph - N/A   Partly Cloudy
1:35 PM 80.6 °F 80.8 °F 57.2 °F 45% 29.95 in 10.0 mi ESE 6.9 mph - N/A   Scattered Clouds
1:55 PM 80.6 °F 80.8 °F 57.2 °F 45% 29.95 in 10.0 mi SSE 6.9 mph - N/A   Scattered Clouds
2:15 PM 80.6 °F 80.8 °F 57.2 °F 45% 29.95 in 10.0 mi SSE 5.8 mph - N/A   Scattered Clouds
2:35 PM 80.6 °F 80.8 °F 57.2 °F 45% 29.94 in 10.0 mi SSE 6.9 mph - N/A   Mostly Cloudy
2:55 PM 80.6 °F 80.8 °F 57.2 °F 45% 29.94 in 10.0 mi SSW 6.9 mph - N/A   Mostly Cloudy
3:15 PM 78.8 °F - 55.4 °F 44% 29.94 in 10.0 mi SSW 6.9 mph - N/A   Mostly Cloudy
3:35 PM 78.8 °F - 55.4 °F 44% 29.94 in 10.0 mi SW 4.6 mph - N/A   Scattered Clouds
3:55 PM 77.0 °F - 57.2 °F 50% 29.94 in 10.0 mi WSW 5.8 mph - N/A   Mostly Cloudy
4:15 PM 77.0 °F - 57.2 °F 50% 29.94 in 10.0 mi SW 4.6 mph - N/A   Overcast
4:35 PM 77.0 °F - 57.2 °F 50% 29.93 in 10.0 mi South 4.6 mph - N/A   Scattered Clouds
5:15 PM 75.2 °F - 57.2 °F 53% 29.94 in 10.0 mi SSW 3.5 mph - N/A   Mostly Cloudy
5:35 PM 75.2 °F - 57.2 °F 53% 29.94 in 10.0 mi SW 4.6 mph - N/A   Overcast
5:55 PM 73.4 °F - 57.2 °F 57% 29.93 in 10.0 mi Calm Calm - N/A   Overcast
6:15 PM 73.4 °F - 57.2 °F 57% 29.93 in 10.0 mi SSE 4.6 mph - N/A   Overcast
6:35 PM 73.4 °F - 55.4 °F 53% 29.92 in 10.0 mi SSE 3.5 mph - N/A   Overcast
6:55 PM 73.4 °F - 57.2 °F 57% 29.93 in 10.0 mi South 5.8 mph - N/A   Overcast
7:15 PM 73.4 °F - 55.4 °F 53% 29.93 in 10.0 mi SSE 8.1 mph - N/A   Scattered Clouds
7:35 PM 73.4 °F - 55.4 °F 53% 29.93 in 10.0 mi South 6.9 mph - N/A   Clear
7:55 PM 71.6 °F - 53.6 °F 53% 29.93 in 10.0 mi South 6.9 mph - N/A   Clear
8:15 PM 71.6 °F - 53.6 °F 53% 29.93 in 10.0 mi South 6.9 mph - N/A   Clear
8:35 PM 71.6 °F - 53.6 °F 53% 29.93 in 10.0 mi SSE 5.8 mph - N/A   Scattered Clouds
8:55 PM 71.6 °F - 53.6 °F 53% 29.93 in 10.0 mi South 6.9 mph - N/A   Mostly Cloudy
9:15 PM 69.8 °F - 53.6 °F 56% 29.93 in 10.0 mi SSE 4.6 mph - N/A   Clear
9:35 PM 69.8 °F - 53.6 °F 56% 29.94 in 10.0 mi SSE 4.6 mph - N/A   Scattered Clouds
9:55 PM 69.8 °F - 53.6 °F 56% 29.94 in 10.0 mi SE 5.8 mph - N/A   Mostly Cloudy
10:15 PM 69.8 °F - 53.6 °F 56% 29.95 in 10.0 mi SE 6.9 mph - N/A   Overcast
10:35 PM 69.8 °F - 53.6 °F 56% 29.95 in 10.0 mi SSE 5.8 mph - N/A   Overcast
10:55 PM 69.8 °F - 53.6 °F 56% 29.95 in 10.0 mi SE 5.8 mph - N/A   Overcast
11:15 PM 68.0 °F - 53.6 °F 60% 29.95 in 10.0 mi SE 5.8 mph - N/A   Overcast
11:35 PM 68.0 °F - 53.6 °F 60% 29.95 in 10.0 mi SE 5.8 mph - N/A   Overcast
11:55 PM 68.0 °F - 53.6 °F 60% 29.95 in 10.0 mi SE 3.5 mph - N/A   Overcast